Regional Weather Roundup
Issued by NWS

Home | Current Version | Previous Version | Graphics & Text | Print | Product List | Glossary On
Versions: 1 2 3 4 5 6 7 8 9 10 11 12 13 14 15 16 17 18 19 20 21 22 23 24 25 26 27 28 29 30 31 32 33 34 35 36 37 38 39 40 41 42 43 44 45 46 47 48 49 50
000
ASUS43 KBIS 251610
RWRND

NORTH DAKOTA REGIONAL WEATHER ROUNDUP
NATIONAL WEATHER SERVICE BISMARCK ND
1100 AM CDT SAT OCT 25 2014

NOTE: "FAIR" INDICATES FEW OR NO CLOUDS BELOW 12,000 FEET WITH NO
SIGNIFICANT WEATHER AND/OR OBSTRUCTIONS TO VISIBILITY.


NDZ001>003-009>011-017-251700-
NORTHWEST NORTH DAKOTA

CITY           SKY/WX    TMP DP  RH WIND       PRES   REMARKS
WILLISTON      CLOUDY    47  32  56 S6        30.13S
MINOT          SUNNY     49  31  49 SW6       30.12F
MINOT AFB      SUNNY     49  32  52 W7        30.12F
$$

NDZ018>021-031>035-040>046-251700-
SOUTHWEST NORTH DAKOTA

CITY           SKY/WX    TMP DP  RH WIND       PRES   REMARKS
BISMARCK       SUNNY     54  33  45 CALM      30.18S
DICKINSON      SUNNY     53  34  48 SE3       30.12F
GARRISON         N/A     50  32  50 CALM      30.14S
HETTINGER ARPT SUNNY     54  34  46 VRB3      30.16S
$$

NDZ004>008-012>016-024-026-027-054-251700-
NORTHEAST NORTH DAKOTA

CITY           SKY/WX    TMP DP  RH WIND       PRES   REMARKS
GRAND FORKS    MOSUNNY   53  31  42 NW15G22   30.08R
GRND FRKS AFB  SUNNY     53  31  43 NW15      30.09R
DEVILS LAKE    SUNNY     48  30  49 W16       30.10R
$$

NDZ022-023-025-028>030-036>039-047>053-251700-
SOUTHEAST NORTH DAKOTA

CITY           SKY/WX    TMP DP  RH WIND       PRES   REMARKS
FARGO          SUNNY     54  33  45 NW14      30.11R
JAMESTOWN      MOSUNNY   50  35  56 W8        30.14S
$$




USA.gov is the U.S. government's official web portal to all federal, state and local government web resources and services.